Location: Brno
(49.2000°N, 16.6330°E)
Time: 14:19:37
(UTC+02:00)

ISS - Pass Details

Date: 19 April 2026
Orbit: 414 x 424 km, 51.6° (Epoch: 18 May)

Event Time Altitude Azimuth Distance (km) Brightness Sun altitude
Exits shadow 04:39:17 - 180° (S) 1,857 -0.8 -11.9°
Reaches altitude 10° 04:40:50 10° 160° (SSE) 1,495 -1.1 -11.7°
Maximum altitude 04:42:14 12° 135° (SE) 1,372 -1.0 -11.5°
Drops below altitude 10° 04:43:40 10° 110° (ESE) 1,503 -0.4 -11.3°
Sets 04:46:47 0° 79° (E) 2,376 1.6 -10.9°
